Regional Weather Roundup
Issued by NWS Little Rock, AR

Home | Current Version | Previous Version | Graphics & Text | Print | Product List | Glossary On
Versions: 1 2 3 4 5 6 7 8 9 10 11 12 13 14 15 16 17 18 19 20 21 22 23 24 25 26 27 28 29 30 31 32 33 34 35 36 37 38 39 40 41 42 43 44 45 46 47 48 49 50
000
ASUS44 KLZK 280405
RWRLZK

WEATHER ROUNDUP FOR ARKANSAS
NATIONAL WEATHER SERVICE LITTLE ROCK AR
1100 PM CDT THU AUG 27 2015

NOTE: "FAIR" INDICATES FEW OR NO CLOUDS BELOW 12,000 FEET WITH NO
SIGNIFICANT WEATHER AND/OR OBSTRUCTIONS TO VISIBILITY.

ARZ001-003-010-029-280500-
NORTHWEST ARKANSAS

CITY           SKY/WX    TMP DP  RH WIND       PRES   REMARKS
FAYETTEVILLE   CLEAR     65  64  97 NE3       30.08R
FORT SMITH     CLEAR     72  63  73 E7        30.02F
BENTONVILLE    CLEAR     68  61  77 SE7       30.07F
ROGERS         CLEAR     68  64  87 SE8       30.08F
SILOAM SPGS    CLEAR     68  57  68 SE8       30.04S
HIGHFILL       CLEAR     69  64  84 SE7       30.06S
$$

ARZ004-005-016-280500-
NORTH CENTRAL ARKANSAS

CITY           SKY/WX    TMP DP  RH WIND       PRES   REMARKS
BATESVILLE     CLEAR     63  59  88 W5        30.09R
FLIPPIN        CLEAR     64  57  77 CALM      30.08F
MTN HOME       CLEAR     65  59  81 S5        30.10R
$$

ARZ040-041-280500-
WEST CENTRAL ARKANSAS

CITY           SKY/WX    TMP DP  RH WIND       PRES   REMARKS
MENA           CLEAR     68  64  88 CALM      30.08S
MOUNT IDA      CLEAR     66  63  90 CALM      30.05S
$$

ARZ009-017-025-026-028-280500-
NORTHEAST ARKANSAS

CITY           SKY/WX    TMP DP  RH WIND       PRES   REMARKS
JONESBORO      CLEAR     62  60  93 NE3       30.07R
NEWPORT        CLEAR     69  64  84 CALM      30.08R
WALNUT RIDGE   CLEAR     66  59  77 CALM      30.08R
BLYTHEVILLE    CLEAR     64  61  90 E6        30.07S
$$

ARZ022-023-033-042-044-280500-
CENTRAL ARKANSAS

CITY           SKY/WX    TMP DP  RH WIND       PRES   REMARKS
LITTLE ROCK    MOCLDY    71  61  70 CALM      30.07S
N LITTLE ROCK  MOCLDY    71  62  74 E5        30.07S
JACKSONVILLE   MOCLDY    68  61  79 N2        30.06S
SEARCY         MOCLDY    63  61  93 CALM      30.09R
HOT SPRINGS    CLEAR     71  59  65 E6        30.07S
RUSSELLVILLE   CLEAR     68  62  81 CALM      30.07R
$$

ARZ036-280500-
EAST ARKANSAS

CITY           SKY/WX    TMP DP  RH WIND       PRES   REMARKS
WEST MEMPHIS   CLEAR     64  62  93 CALM      30.05S
$$

ARZ050-053-066-070-073-280500-
SOUTHWEST ARKANSAS

CITY           SKY/WX    TMP DP  RH WIND       PRES   REMARKS
ARKADELPHIA    FAIR      66  65  97 CALM      30.07R
CAMDEN         CLEAR     64  59  82 CALM      30.05F
TEXARKANA      CLEAR     70  64  81 E3        30.05S
EL DORADO      PTCLDY    68  60  75 NE3       30.06R
DE QUEEN       CLEAR     66  65  96 E5        30.02F
$$

ARZ056-057-069-280500-
SOUTHEAST ARKANSAS

CITY           SKY/WX    TMP DP  RH WIND       PRES   REMARKS
PINE BLUFF     MOCLDY    68  61  78 CALM      30.07R
STUTTGART      PTCLDY    66  59  77 N6        30.07S
MONTICELLO     MOCLDY    66  62  87 CALM      30.05F

$$




USA.gov is the U.S. government's official web portal to all federal, state and local government web resources and services.